Content
SEND FEEDBACK

Daily
Averages
Monthly
Summary
United States of America

EL PASO, TEXAS


Home > North America > United States > Texas
Elevation: 3918 feet     Latitude: 31 48N     Longitude: 106 24W

WEATHER
 
SELECT A DAY
Number of Records: 171,933;   Date Range: 1/1/95 - 7/27/14
 
SHARE

PRINT THIS DATA

[ ← Previous Day ]
WEATHER ALMANAC - OCTOBER 8, 2013
[ Next Day → ]
[ °C ]   °F
We're sorry. There is no daily almanac available for El Paso, Texas on October 8, 2013.
WEATHER BY HOUR - OCTOBER 8, 2013
[ °C ]   °F
Local TimeTemperatureDewpointHumidityBarometerVisibilityWind DirectionWind SpeedGust SpeedPrecipitationEventsConditions
1:51 AM52.0 °F30.0 °F43 %29.94 in10.0 miENE (70°)5.8 mphScattered Clouds
2:51 AM54.0 °F30.9 °F41 %29.91 in10.0 miNorth (10°)3.5 mphScattered Clouds
4:51 AM53.1 °F32.0 °F45 %29.91 in10.0 miNorth (350°)3.5 mphScattered Clouds
5:51 AM51.1 °F32.0 °F48 %29.91 in10.0 miNorth (350°)3.5 mphMostly Cloudy
6:51 AM51.1 °F32.0 °F48 %29.93 in10.0 miNorth (360°)3.5 mphMostly Cloudy
7:51 AM54.0 °F30.9 °F41 %29.94 in10.0 miNorth (360°)3.5 mphMostly Cloudy
8:51 AM61.0 °F30.0 °F31 %29.93 in10.0 miCalmMostly Cloudy
9:51 AM66.0 °F27.0 °F23 %29.92 in10.0 miCalmMostly Cloudy
10:51 AM71.1 °F27.0 °F19 %29.91 in10.0 miSouth (180°)9.2 mphScattered Clouds
11:51 AM73.9 °F33.1 °F22 %29.88 in10.0 miSouth (190°)6.9 mphPartly Cloudy
12:51 PM78.1 °F35.1 °F21 %29.86 in10.0 miSouth (190°)6.9 mphPartly Cloudy
1:51 PM81.0 °F37.0 °F21 %29.81 in10.0 miVariable3.5 mphPartly Cloudy
2:51 PM84.0 °F37.0 °F19 %29.78 in10.0 miSW (220°)4.6 mphPartly Cloudy
3:51 PM84.9 °F34.0 °F16 %29.75 in10.0 miSouth (190°)12.7 mphPartly Cloudy
4:51 PM84.0 °F33.1 °F16 %29.75 in10.0 miSW (220°)5.8 mphPartly Cloudy
5:51 PM82.0 °F34.0 °F18 %29.75 in10.0 miSSW (200°)9.2 mph16.1 mphPartly Cloudy
6:51 PM78.1 °F35.1 °F21 %29.75 in10.0 miSW (220°)4.6 mphPartly Cloudy
7:51 PM75.0 °F36.0 °F24 %29.75 in10.0 miSSE (150°)3.5 mphPartly Cloudy
8:51 PM73.9 °F37.0 °F26 %29.74 in10.0 miCalmPartly Cloudy
9:51 PM72.0 °F36.0 °F27 %29.75 in10.0 miSW (230°)8.1 mphPartly Cloudy
10:51 PM75.9 °F33.1 °F21 %29.73 in10.0 miWSW (250°)12.7 mphPartly Cloudy
11:51 PM73.9 °F32.0 °F21 %29.73 in10.0 miWSW (250°)13.8 mphScattered Clouds
Hourly data recorded from KELP, located miles away from El Paso, Texas







STORIES FROM OUR PARTNERS